| time (UTC) | temp F | wind direction | speed MPH | gust MPH | rain 1hr in | rain 24hr in | rain mn in | humidity % | barometer mb |
| 20260507201522 | 65 | 58 | 1.0 | 5.0 | 0.00 | 0.28 | 0.19 | 32 | 1005.2 |
| 20260507200022 | 66 | 82 | 2.0 | 5.0 | 0.00 | 0.28 | 0.19 | 31 | 1005.3 |
| 20260507194518 | 66 | 29 | 1.0 | 3.0 | 0.00 | 0.28 | 0.19 | 31 | 1005.5 |
| 20260507193017 | 67 | 66 | 1.0 | 4.0 | 0.00 | 0.28 | 0.19 | 32 | 1005.5 |
| 20260507191515 | 67 | 108 | 1.0 | 5.0 | 0.00 | 0.28 | 0.19 | 32 | 1005.7 |
| 20260507190013 | 67 | 114 | 0.0 | 4.0 | 0.00 | 0.28 | 0.19 | 32 | 1005.8 |
| 20260507184512 | 67 | 174 | 0.0 | 5.0 | 0.00 | 0.28 | 0.19 | 35 | 1005.8 |
| 20260507183009 | 67 | 82 | 1.0 | 4.0 | 0.00 | 0.28 | 0.19 | 34 | 1006.1 |
| 20260507181508 | 67 | 127 | 0.0 | 4.0 | 0.00 | 0.28 | 0.19 | 36 | 1006.2 |
| 20260507180007 | 66 | 326 | 1.0 | 5.0 | 0.00 | 0.28 | 0.19 | 35 | 1006.4 |
| 20260507174506 | 66 | 111 | 1.0 | 5.0 | 0.00 | 0.28 | 0.19 | 37 | 1006.3 |
| 20260507173013 | 66 | 118 | 1.0 | 4.0 | 0.00 | 0.28 | 0.19 | 41 | 1006.3 |
| 20260507171506 | 65 | 88 | 1.0 | 5.0 | 0.00 | 0.28 | 0.19 | 41 | 1006.4 |
| 20260507170003 | 67 | 202 | 2.0 | 5.0 | 0.00 | 0.28 | 0.19 | 44 | 1006.5 |
| 20260507164501 | 67 | 114 | 0.0 | 3.0 | 0.00 | 0.28 | 0.19 | 48 | 1006.7 |
| 20260507163117 | 66 | 52 | 1.0 | 6.0 | 0.00 | 0.28 | 0.19 | 49 | 1006.8 |
| 20260507161556 | 65 | 114 | 1.0 | 4.0 | 0.00 | 0.28 | 0.19 | 51 | 1007.0 |
| 20260507160055 | 63 | 147 | 1.0 | 4.0 | 0.00 | 0.28 | 0.19 | 57 | 1007.2 |
| 20260507154549 | 61 | 138 | 0.0 | 4.0 | 0.00 | 0.28 | 0.19 | 60 | 1007.3 |
| 20260507153048 | 61 | 115 | 0.0 | 3.0 | 0.00 | 0.28 | 0.19 | 58 | 1007.5 |
| 20260507151548 | 61 | 143 | 0.0 | 4.0 | 0.00 | 0.28 | 0.19 | 58 | 1007.5 |
| 20260507150046 | 61 | 108 | 0.0 | 2.0 | 0.00 | 0.28 | 0.19 | 58 | 1007.8 |
| 20260507144611 | 61 | 93 | 0.0 | 4.0 | 0.00 | 0.28 | 0.19 | 59 | 1007.8 |
| 20260507143042 | 59 | 72 | 0.0 | 2.0 | 0.00 | 0.28 | 0.19 | 58 | 1008.1 |
| 20260507141543 | 58 | 89 | 0.0 | 3.0 | 0.00 | 0.28 | 0.19 | 62 | 1008.0 |
| 20260507140037 | 57 | 63 | 0.0 | 3.0 | 0.00 | 0.28 | 0.19 | 69 | 1008.2 |
| 20260507134540 | 55 | 79 | 0.0 | 2.0 | 0.00 | 0.28 | 0.19 | 73 | 1008.1 |
| 20260507133037 | 54 | 115 | 0.0 | 3.0 | 0.00 | 0.28 | 0.19 | 78 | 1008.0 |
| 20260507131534 | 52 | 83 | 1.0 | 4.0 | 0.00 | 0.28 | 0.19 | 86 | 1008.2 |
| 20260507130031 | 52 | 136 | 0.0 | 3.0 | 0.00 | 0.28 | 0.19 | 91 | 1008.2 |
| 20260507124531 | 51 | 338 | 0.0 | 2.0 | 0.00 | 0.28 | 0.19 | 93 | 1008.3 |
| 20260507123030 | 51 | 134 | 0.0 | 2.0 | 0.00 | 0.28 | 0.19 | 93 | 1008.6 |
| 20260507121528 | 50 | 128 | 0.0 | 1.0 | 0.00 | 0.28 | 0.19 | 93 | 1008.4 |
| 20260507120027 | 50 | 112 | 0.0 | 2.0 | 0.00 | 0.28 | 0.19 | 93 | 1008.2 |
| 20260507114526 | 49 | 182 | 0.0 | 2.0 | 0.00 | 0.28 | 0.19 | 93 | 1008.3 |
| 20260507113027 | 49 | 122 | 0.0 | 1.0 | 0.01 | 0.28 | 0.19 | 93 | 1008.2 |
| 20260507111538 | 49 | 125 | 0.0 | 0.0 | 0.02 | 0.28 | 0.19 | 93 | 1007.9 |
| 20260507110024 | 49 | 125 | 0.0 | 0.0 | 0.03 | 0.28 | 0.19 | 93 | 1007.9 |
| 20260507104523 | 49 | 125 | 0.0 | 0.0 | 0.04 | 0.28 | 0.19 | 93 | 1007.9 |
| 20260507103022 | 49 | 125 | 0.0 | 0.0 | 0.04 | 0.28 | 0.18 | 93 | 1008.4 |
| 20260507101521 | 49 | 127 | 0.0 | 0.0 | 0.03 | 0.27 | 0.17 | 93 | 1007.9 |
| 20260507100020 | 49 | 127 | 0.0 | 2.0 | 0.04 | 0.26 | 0.16 | 92 | 1008.1 |
| 20260507094517 | 49 | 148 | 0.0 | 0.0 | 0.06 | 0.25 | 0.15 | 92 | 1007.6 |
| 20260507093020 | 50 | 134 | 0.0 | 1.0 | 0.07 | 0.24 | 0.14 | 92 | 1007.7 |
| 20260507091524 | 50 | 114 | 0.0 | 2.0 | 0.09 | 0.24 | 0.14 | 92 | 1007.2 |
| 20260507090017 | 50 | 128 | 0.0 | 3.0 | 0.09 | 0.22 | 0.12 | 91 | 1007.4 |
| 20260507084509 | 51 | 101 | 0.0 | 3.0 | 0.07 | 0.19 | 0.09 | 91 | 1007.5 |
| 20260507083007 | 52 | 112 | 0.0 | 1.0 | 0.06 | 0.16 | 0.06 | 90 | 1007.3 |
| 20260507081510 | 53 | 271 | 0.0 | 2.0 | 0.04 | 0.14 | 0.04 | 90 | 1007.1 |
| 20260507074556 | 55 | 158 | 0.0 | 2.0 | 0.02 | 0.12 | 0.02 | 88 | 1007.2 |
| 20260507073101 | 55 | 105 | 0.0 | 3.0 | 0.00 | 0.10 | 0.00 | 87 | 1006.4 |
| 20260507071555 | 56 | 91 | 0.0 | 3.0 | 0.00 | 0.10 | 0.00 | 88 | 1006.1 |
| 20260507070057 | 56 | 108 | 0.0 | 2.0 | 0.00 | 0.10 | 0.00 | 89 | 1006.2 |
| 20260507064548 | 57 | 106 | 0.0 | 1.0 | 0.00 | 0.10 | 0.00 | 89 | 1006.3 |
| 20260507063050 | 57 | 139 | 0.0 | 1.0 | 0.00 | 0.10 | 0.00 | 90 | 1006.3 |
| 20260507061546 | 57 | 161 | 0.0 | 1.0 | 0.00 | 0.10 | 0.00 | 91 | 1006.0 |
| 20260507060051 | 57 | 143 | 0.0 | 3.0 | 0.00 | 0.10 | 0.00 | 92 | 1006.4 |
| 20260507054548 | 58 | 121 | 0.0 | 2.0 | 0.00 | 0.10 | 0.00 | 93 | 1006.4 |
| 20260507053042 | 59 | 101 | 0.0 | 2.0 | 0.00 | 0.10 | 0.00 | 93 | 1006.6 |
| 20260507051537 | 59 | 110 | 0.0 | 1.0 | 0.00 | 0.10 | 0.00 | 93 | 1006.5 |
| 20260507050037 | 59 | 114 | 0.0 | 2.0 | 0.00 | 0.10 | 0.00 | 92 | 1006.4 |
| 20260507044548 | 59 | 131 | 0.0 | 1.0 | 0.00 | 0.10 | 0.00 | 92 | 1006.5 |
| 20260507043034 | 59 | 103 | 0.0 | 0.0 | 0.00 | 0.10 | 0.00 | 92 | 1006.2 |
| 20260507041532 | 59 | 108 | 0.0 | 1.0 | 0.00 | 0.10 | 0.00 | 92 | 1006.4 |
| 20260507040033 | 59 | 95 | 0.0 | 1.0 | 0.00 | 0.10 | 0.00 | 92 | 1006.5 |
| 20260507034534 | 59 | 46 | 0.0 | 1.0 | 0.00 | 0.10 | 0.10 | 92 | 1006.5 |
| 20260507033028 | 59 | 104 | 0.0 | 4.0 | 0.00 | 0.10 | 0.10 | 92 | 1006.4 |
| 20260507031529 | 58 | 120 | 0.0 | 3.0 | 0.00 | 0.10 | 0.10 | 92 | 1006.2 |
| 20260507030028 | 58 | 52 | 0.0 | 5.0 | 0.00 | 0.10 | 0.10 | 92 | 1006.1 |
| 20260507024526 | 58 | 94 | 0.0 | 1.0 | 0.00 | 0.10 | 0.10 | 92 | 1006.1 |
| 20260507023026 | 58 | 134 | 0.0 | 3.0 | 0.00 | 0.10 | 0.10 | 92 | 1006.0 |
| 20260507021528 | 58 | 55 | 0.0 | 2.0 | 0.00 | 0.10 | 0.10 | 92 | 1006.1 |
| 20260507020032 | 58 | 319 | 0.0 | 1.0 | 0.00 | 0.10 | 0.10 | 92 | 1006.0 |
| 20260507014522 | 58 | 135 | 0.0 | 2.0 | 0.00 | 0.10 | 0.10 | 92 | 1006.2 |
| 20260507013021 | 58 | 84 | 0.0 | 3.0 | 0.00 | 0.10 | 0.10 | 92 | 1006.4 |
| 20260507011521 | 57 | 127 | 0.0 | 4.0 | 0.00 | 0.10 | 0.10 | 92 | 1006.6 |
| 20260507010025 | 57 | 354 | 0.0 | 4.0 | 0.00 | 0.10 | 0.10 | 92 | 1006.6 |
| 20260507004517 | 57 | 106 | 0.0 | 3.0 | 0.01 | 0.10 | 0.10 | 92 | 1006.6 |
| 20260507003026 | 57 | 115 | 0.0 | 4.0 | 0.01 | 0.10 | 0.10 | 92 | 1006.6 |
| 20260507001523 | 57 | 163 | 0.0 | 3.0 | 0.02 | 0.10 | 0.10 | 92 | 1006.5 |
| 20260507000015 | 57 | 142 | 0.0 | 4.0 | 0.02 | 0.10 | 0.10 | 92 | 1006.5 |
| 20260506234514 | 57 | 139 | 0.0 | 3.0 | 0.01 | 0.09 | 0.09 | 92 | 1006.3 |
| 20260506233013 | 58 | 130 | 1.0 | 5.0 | 0.01 | 0.09 | 0.09 | 92 | 1006.2 |
| 20260506231513 | 58 | 143 | 0.0 | 3.0 | 0.00 | 0.08 | 0.08 | 92 | 1006.3 |
| 20260506230009 | 58 | 333 | 0.0 | 3.0 | 0.00 | 0.08 | 0.08 | 92 | 1006.5 |
| 20260506224508 | 58 | 138 | 0.0 | 4.0 | 0.01 | 0.08 | 0.08 | 92 | 1006.4 |
| 20260506223005 | 59 | 40 | 0.0 | 2.0 | 0.01 | 0.08 | 0.08 | 92 | 1006.7 |
| 20260506221505 | 59 | 165 | 1.0 | 5.0 | 0.02 | 0.08 | 0.08 | 92 | 1006.8 |
| 20260506220004 | 60 | 169 | 0.0 | 2.0 | 0.04 | 0.08 | 0.08 | 91 | 1006.9 |
| 20260506214504 | 60 | 116 | 0.0 | 3.0 | 0.05 | 0.07 | 0.07 | 91 | 1007.2 |
| 20260506213004 | 60 | 68 | 0.0 | 4.0 | 0.06 | 0.07 | 0.07 | 91 | 1007.1 |
| 20260506211600 | 61 | 147 | 0.0 | 4.0 | 0.05 | 0.06 | 0.06 | 90 | 1007.2 |
| 20260506210058 | 61 | 155 | 0.0 | 3.0 | 0.04 | 0.04 | 0.04 | 89 | 1007.2 |
| 20260506204621 | 62 | 119 | 0.0 | 5.0 | 0.02 | 0.02 | 0.02 | 87 | 1007.4 |
| 20260506203057 | 62 | 32 | 0.0 | 4.0 | 0.01 | 0.01 | 0.01 | 85 | 1007.2 |